Location: The Saddle
(36.8333°N, 80.3417°W)
Time: 14:18:24
(UTC-04:00)

SR - Pass Details

Date: 25 May 2024
Orbit: 580 x 858 km, 66.7° (Epoch: 14 June)

Event Time Altitude Azimuth Distance (km) Brightness Sun altitude
Rises 02:40:40 0° 344° (NNW) 2,844 ? -28.9°
Reaches altitude 10° 02:43:17 10° 358° (N) 1,916 ? -28.7°
Maximum altitude 02:46:47 24° 54° (NE) 1,205 ? -28.5°
Enters shadow 02:48:32 19° 90° (E) 1,409 ? -28.3°
